Time,TemperatureF,DewpointF,PressureIn,WindDirection,WindDirectionDegrees,WindSpeedMPH,WindSpeedGustMPH,Humidity,HourlyPrecipIn,Conditions,Clouds,dailyrainin,SoftwareType,DateUTC
2013-01-28 00:04:00,38.0,35.0,30.23,SSE,160,1.0,5.0,89,0.02,,,0.16,,2013-01-28 05:04:00,
2013-01-28 00:11:00,38.0,35.0,30.23,SSE,160,1.0,5.0,89,0.02,,,0.16,,2013-01-28 05:11:00,
2013-01-28 00:21:00,38.0,35.0,30.23,SSE,160,0.0,2.0,89,0.02,,,0.16,,2013-01-28 05:21:00,
2013-01-28 00:32:00,38.0,35.0,30.22,SSE,159,2.0,5.0,90,0.02,,,0.16,,2013-01-28 05:32:00,
2013-01-28 00:42:00,38.0,35.0,30.22,SSE,159,2.0,5.0,90,0.02,,,0.16,,2013-01-28 05:42:00,
2013-01-28 00:52:00,38.0,35.0,30.22,SSE,162,2.0,5.0,90,0.01,,,0.16,,2013-01-28 05:52:00,
2013-01-28 01:02:00,39.0,36.0,30.20,SSE,159,3.0,5.0,90,0.01,,,0.17,,2013-01-28 06:02:00,
2013-01-28 01:11:00,39.0,36.0,30.20,SSE,159,3.0,5.0,90,0.01,,,0.17,,2013-01-28 06:11:00,
2013-01-28 01:22:00,39.0,37.0,30.19,SSE,167,4.0,9.0,91,0.01,,,0.17,,2013-01-28 06:22:00,
2013-01-28 01:32:00,40.0,38.0,30.19,SSE,164,4.0,7.0,91,0.01,,,0.17,,2013-01-28 06:32:00,
2013-01-28 01:42:00,40.0,38.0,30.19,SSE,164,4.0,7.0,91,0.01,,,0.17,,2013-01-28 06:42:00,
2013-01-28 01:52:00,40.0,38.0,30.19,South,170,4.0,9.0,91,0.01,,,0.17,,2013-01-28 06:52:00,
2013-01-28 02:03:00,41.0,39.0,30.19,South,181,4.0,12.0,92,0.00,,,0.17,,2013-01-28 07:03:00,
2013-01-28 02:11:00,41.0,39.0,30.19,South,181,4.0,12.0,92,0.00,,,0.17,,2013-01-28 07:11:00,
2013-01-28 02:21:00,41.0,39.0,30.20,South,173,4.0,9.0,92,0.00,,,0.17,,2013-01-28 07:21:00,
2013-01-28 02:32:00,42.0,40.0,30.20,SSE,168,4.0,8.0,92,0.00,,,0.17,,2013-01-28 07:32:00,
2013-01-28 02:42:00,42.0,40.0,30.20,SSE,168,4.0,8.0,92,0.00,,,0.17,,2013-01-28 07:42:00,
2013-01-28 02:51:00,42.0,40.0,30.21,SSE,166,2.0,9.0,92,0.00,,,0.17,,2013-01-28 07:51:00,
2013-01-28 03:01:00,42.0,40.0,30.21,South,179,3.0,10.0,92,0.00,,,0.17,,2013-01-28 08:01:00,
2013-01-28 03:11:00,42.0,40.0,30.21,South,180,2.0,8.0,92,0.00,,,0.17,,2013-01-28 08:11:00,
2013-01-28 03:21:00,42.0,40.0,30.21,South,180,2.0,8.0,92,0.00,,,0.17,,2013-01-28 08:21:00,
2013-01-28 03:32:00,42.0,40.0,30.20,South,171,5.0,8.0,92,0.00,,,0.17,,2013-01-28 08:32:00,
2013-01-28 03:42:00,42.0,40.0,30.20,South,171,5.0,8.0,92,0.00,,,0.17,,2013-01-28 08:42:00,
2013-01-28 03:52:00,42.0,40.0,30.20,South,175,3.0,8.0,92,0.00,,,0.17,,2013-01-28 08:52:00,
2013-01-28 04:02:00,42.0,40.0,30.19,SSE,163,5.0,8.0,92,0.00,,,0.17,,2013-01-28 09:02:00,
2013-01-28 04:11:00,42.0,40.0,30.19,SSE,163,5.0,8.0,92,0.00,,,0.17,,2013-01-28 09:11:00,
2013-01-28 04:22:00,43.0,41.0,30.18,South,174,3.0,8.0,92,0.00,,,0.17,,2013-01-28 09:22:00,
2013-01-28 04:32:00,42.0,40.0,30.18,South,173,4.0,11.0,92,0.00,,,0.17,,2013-01-28 09:32:00,
2013-01-28 04:42:00,42.0,40.0,30.18,South,173,4.0,11.0,92,0.00,,,0.17,,2013-01-28 09:42:00,
2013-01-28 04:52:00,43.0,41.0,30.18,South,176,4.0,13.0,92,0.00,,,0.17,,2013-01-28 09:52:00,
2013-01-28 05:02:00,43.0,41.0,30.17,South,175,4.0,11.0,92,0.00,,,0.17,,2013-01-28 10:02:00,
2013-01-28 05:11:00,43.0,41.0,30.17,South,175,4.0,11.0,92,0.00,,,0.17,,2013-01-28 10:11:00,
2013-01-28 05:21:00,43.0,41.0,30.17,South,172,6.0,11.0,92,0.00,,,0.17,,2013-01-28 10:21:00,
2013-01-28 05:32:00,43.0,41.0,30.16,South,178,5.0,13.0,92,0.00,,,0.17,,2013-01-28 10:32:00,
2013-01-28 05:42:00,43.0,41.0,30.16,South,178,5.0,13.0,92,0.00,,,0.17,,2013-01-28 10:42:00,
2013-01-28 05:51:00,43.0,41.0,30.16,South,173,4.0,13.0,92,0.00,,,0.17,,2013-01-28 10:51:00,
2013-01-28 06:02:00,43.0,41.0,30.16,South,181,7.0,13.0,91,0.00,,,0.17,,2013-01-28 11:02:00,
2013-01-28 06:11:00,43.0,41.0,30.16,South,181,7.0,13.0,91,0.00,,,0.17,,2013-01-28 11:11:00,
2013-01-28 06:22:00,43.0,40.0,30.16,SSE,164,8.0,15.0,90,0.00,,,0.17,,2013-01-28 11:22:00,
2013-01-28 06:32:00,44.0,41.0,30.15,SSE,154,7.0,13.0,88,0.00,,,0.17,,2013-01-28 11:32:00,
2013-01-28 06:42:00,44.0,41.0,30.15,SSE,154,7.0,13.0,88,0.00,,,0.17,,2013-01-28 11:42:00,
2013-01-28 06:52:00,44.0,41.0,30.15,South,179,7.0,14.0,88,0.00,,,0.17,,2013-01-28 11:52:00,
2013-01-28 07:03:00,44.0,40.0,30.15,SSE,166,5.0,14.0,85,0.00,,,0.17,,2013-01-28 12:03:00,
2013-01-28 07:12:00,44.0,40.0,30.15,SSE,166,5.0,14.0,85,0.00,,,0.17,,2013-01-28 12:12:00,
2013-01-28 07:23:00,44.0,40.0,30.15,SSE,167,5.0,13.0,85,0.00,,,0.17,,2013-01-28 12:23:00,
2013-01-28 07:33:00,44.0,39.0,30.15,South,171,9.0,16.0,84,0.00,,,0.17,,2013-01-28 12:33:00,
2013-01-28 07:42:00,44.0,39.0,30.15,South,171,9.0,16.0,84,0.00,,,0.17,,2013-01-28 12:42:00,
2013-01-28 07:52:00,44.0,39.0,30.15,SSE,159,4.0,12.0,83,0.00,,,0.17,,2013-01-28 12:52:00,
2013-01-28 08:03:00,45.0,40.0,30.15,South,172,6.0,11.0,82,0.00,,,0.17,,2013-01-28 13:03:00,
2013-01-28 08:12:00,45.0,40.0,30.15,South,172,6.0,11.0,82,0.00,,,0.17,,2013-01-28 13:12:00,
2013-01-28 08:23:00,45.0,40.0,30.15,South,183,6.0,10.0,82,0.00,,,0.17,,2013-01-28 13:23:00,
2013-01-28 08:33:00,45.0,40.0,30.14,South,178,5.0,14.0,81,0.00,,,0.17,,2013-01-28 13:33:00,
2013-01-28 08:42:00,45.0,40.0,30.14,South,178,5.0,14.0,81,0.00,,,0.17,,2013-01-28 13:42:00,
2013-01-28 08:52:00,46.0,41.0,30.14,South,178,7.0,16.0,81,0.00,,,0.17,,2013-01-28 13:52:00,
2013-01-28 09:03:00,46.0,40.0,30.15,SSE,155,8.0,15.0,80,0.00,,,0.17,,2013-01-28 14:03:00,
2013-01-28 09:12:00,46.0,40.0,30.15,SSE,155,8.0,15.0,80,0.00,,,0.17,,2013-01-28 14:12:00,
2013-01-28 09:23:00,47.0,41.0,30.15,South,171,9.0,15.0,81,0.00,,,0.17,,2013-01-28 14:23:00,
2013-01-28 09:33:00,48.0,42.0,30.14,South,185,8.0,15.0,80,0.00,,,0.17,,2013-01-28 14:33:00,
2013-01-28 09:43:00,48.0,42.0,30.14,South,185,8.0,15.0,80,0.00,,,0.17,,2013-01-28 14:43:00,
2013-01-28 09:52:00,48.0,42.0,30.14,South,175,7.0,16.0,80,0.00,,,0.17,,2013-01-28 14:52:00,
2013-01-28 10:03:00,49.0,43.0,30.14,South,170,6.0,14.0,80,0.00,,,0.17,,2013-01-28 15:03:00,
2013-01-28 10:12:00,49.0,43.0,30.14,South,170,6.0,14.0,80,0.00,,,0.17,,2013-01-28 15:12:00,
2013-01-28 10:23:00,49.0,43.0,30.14,South,180,7.0,15.0,80,0.00,,,0.17,,2013-01-28 15:23:00,
2013-01-28 10:33:00,49.0,44.0,30.15,South,175,5.0,12.0,82,0.00,,,0.17,,2013-01-28 15:33:00,
2013-01-28 10:43:00,49.0,44.0,30.15,South,175,5.0,12.0,82,0.00,,,0.17,,2013-01-28 15:43:00,
2013-01-28 10:52:00,49.0,44.0,30.15,South,173,5.0,13.0,83,0.00,,,0.17,,2013-01-28 15:52:00,
2013-01-28 11:04:00,49.0,44.0,30.16,South,180,5.0,12.0,83,0.00,,,0.17,,2013-01-28 16:04:00,
2013-01-28 11:12:00,49.0,44.0,30.16,South,180,5.0,12.0,83,0.00,,,0.17,,2013-01-28 16:12:00,
2013-01-28 11:22:00,49.0,44.0,30.16,South,182,4.0,13.0,84,0.00,,,0.17,,2013-01-28 16:22:00,
2013-01-28 11:33:00,49.0,45.0,30.16,South,181,6.0,14.0,85,0.00,,,0.17,,2013-01-28 16:33:00,
2013-01-28 11:43:00,49.0,45.0,30.16,South,181,6.0,14.0,85,0.00,,,0.17,,2013-01-28 16:43:00,
2013-01-28 11:52:00,49.0,45.0,30.16,South,187,5.0,16.0,86,0.00,,,0.17,,2013-01-28 16:52:00,
2013-01-28 12:02:00,49.0,45.0,30.17,South,184,6.0,17.0,87,0.00,,,0.17,,2013-01-28 17:02:00,
2013-01-28 12:12:00,49.0,45.0,30.17,South,184,6.0,17.0,87,0.00,,,0.17,,2013-01-28 17:12:00,
2013-01-28 12:23:00,48.0,45.0,30.16,South,178,5.0,12.0,88,0.00,,,0.17,,2013-01-28 17:23:00,
2013-01-28 12:33:00,49.0,46.0,30.15,South,169,7.0,16.0,89,0.00,,,0.17,,2013-01-28 17:33:00,
2013-01-28 12:42:00,49.0,46.0,30.15,South,169,7.0,16.0,89,0.00,,,0.17,,2013-01-28 17:42:00,
2013-01-28 12:52:00,49.0,46.0,30.15,South,183,5.0,11.0,89,0.00,,,0.17,,2013-01-28 17:52:00,
2013-01-28 13:03:00,49.0,46.0,30.14,SSE,162,4.0,14.0,89,0.00,,,0.17,,2013-01-28 18:03:00,
2013-01-28 13:12:00,49.0,46.0,30.14,SSE,162,4.0,14.0,89,0.00,,,0.17,,2013-01-28 18:12:00,
2013-01-28 13:23:00,49.0,46.0,30.14,South,182,3.0,11.0,89,0.00,,,0.17,,2013-01-28 18:23:00,
2013-01-28 13:33:00,49.0,46.0,30.14,South,177,4.0,11.0,90,0.00,,,0.17,,2013-01-28 18:33:00,
2013-01-28 13:42:00,49.0,46.0,30.14,South,177,4.0,11.0,90,0.00,,,0.17,,2013-01-28 18:42:00,
2013-01-28 13:52:00,49.0,46.0,30.14,South,173,4.0,12.0,90,0.00,,,0.17,,2013-01-28 18:52:00,
2013-01-28 14:02:00,49.0,46.0,30.13,South,180,4.0,13.0,91,0.01,,,0.18,,2013-01-28 19:02:00,
2013-01-28 14:12:00,49.0,46.0,30.12,SSE,161,4.0,11.0,91,0.01,,,0.18,,2013-01-28 19:12:00,
2013-01-28 14:22:00,49.0,46.0,30.12,SSE,161,4.0,11.0,91,0.01,,,0.18,,2013-01-28 19:22:00,
2013-01-28 14:33:00,50.0,47.0,30.11,South,178,4.0,13.0,91,0.01,,,0.18,,2013-01-28 19:33:00,
2013-01-28 14:42:00,50.0,47.0,30.11,South,178,4.0,13.0,91,0.01,,,0.18,,2013-01-28 19:42:00,
2013-01-28 14:52:00,50.0,48.0,30.11,South,185,8.0,16.0,92,0.02,,,0.19,,2013-01-28 19:52:00,
2013-01-28 15:03:00,50.0,48.0,30.11,South,174,5.0,10.0,92,0.01,,,0.19,,2013-01-28 20:03:00,
2013-01-28 15:12:00,50.0,48.0,30.11,South,174,5.0,10.0,92,0.01,,,0.19,,2013-01-28 20:12:00,
2013-01-28 15:22:00,50.0,48.0,30.11,South,179,4.0,14.0,92,0.01,,,0.19,,2013-01-28 20:22:00,
2013-01-28 15:33:00,50.0,48.0,30.11,South,177,5.0,14.0,92,0.01,,,0.19,,2013-01-28 20:33:00,
2013-01-28 15:42:00,50.0,48.0,30.11,South,177,5.0,14.0,92,0.01,,,0.19,,2013-01-28 20:42:00,
2013-01-28 15:52:00,50.0,48.0,30.11,South,184,5.0,12.0,92,0.00,,,0.19,,2013-01-28 20:52:00,
2013-01-28 16:03:00,50.0,48.0,30.11,South,178,4.0,12.0,93,0.00,,,0.19,,2013-01-28 21:03:00,
2013-01-28 16:12:00,50.0,48.0,30.11,South,178,4.0,12.0,93,0.00,,,0.19,,2013-01-28 21:12:00,
2013-01-28 16:22:00,50.0,48.0,30.11,South,169,5.0,11.0,93,0.00,,,0.19,,2013-01-28 21:22:00,
2013-01-28 16:33:00,50.0,48.0,30.12,SSE,167,4.0,13.0,93,0.00,,,0.19,,2013-01-28 21:33:00,
2013-01-28 16:43:00,50.0,48.0,30.12,SSE,167,4.0,13.0,93,0.00,,,0.19,,2013-01-28 21:43:00,
2013-01-28 16:52:00,50.0,48.0,30.11,South,175,5.0,11.0,93,0.00,,,0.19,,2013-01-28 21:52:00,
2013-01-28 17:02:00,50.0,48.0,30.11,South,170,4.0,9.0,93,0.00,,,0.19,,2013-01-28 22:02:00,
2013-01-28 17:12:00,50.0,48.0,30.11,South,170,4.0,9.0,93,0.00,,,0.19,,2013-01-28 22:12:00,
2013-01-28 17:23:00,50.0,48.0,30.12,South,182,3.0,8.0,93,0.00,,,0.19,,2013-01-28 22:23:00,
2013-01-28 17:33:00,50.0,48.0,30.11,South,178,2.0,12.0,93,0.00,,,0.19,,2013-01-28 22:33:00,
2013-01-28 17:42:00,50.0,48.0,30.11,South,178,2.0,12.0,93,0.00,,,0.19,,2013-01-28 22:42:00,
2013-01-28 17:52:00,50.0,48.0,30.11,South,179,4.0,8.0,93,0.00,,,0.19,,2013-01-28 22:52:00,
2013-01-28 18:02:00,50.0,48.0,30.11,South,180,1.0,6.0,93,0.00,,,0.19,,2013-01-28 23:02:00,
2013-01-28 18:12:00,50.0,48.0,30.11,South,180,1.0,6.0,93,0.00,,,0.19,,2013-01-28 23:12:00,
2013-01-28 18:22:00,50.0,48.0,30.12,SSE,167,1.0,8.0,93,0.00,,,0.19,,2013-01-28 23:22:00,
2013-01-28 18:32:00,50.0,48.0,30.12,SSE,165,3.0,14.0,93,0.00,,,0.19,,2013-01-28 23:32:00,
2013-01-28 18:42:00,50.0,48.0,30.12,SSE,165,3.0,14.0,93,0.00,,,0.19,,2013-01-28 23:42:00,
2013-01-28 18:52:00,51.0,49.0,30.11,South,173,3.0,11.0,93,0.00,,,0.19,,2013-01-28 23:52:00,
2013-01-28 19:02:00,51.0,49.0,30.12,South,169,2.0,9.0,93,0.00,,,0.19,,2013-01-29 00:02:00,
2013-01-28 19:12:00,51.0,49.0,30.12,South,169,2.0,9.0,93,0.00,,,0.19,,2013-01-29 00:12:00,
2013-01-28 19:22:00,51.0,49.0,30.13,South,170,3.0,9.0,93,0.00,,,0.19,,2013-01-29 00:22:00,
2013-01-28 19:33:00,51.0,49.0,30.13,South,173,2.0,8.0,94,0.00,,,0.19,,2013-01-29 00:33:00,
2013-01-28 19:42:00,51.0,49.0,30.13,South,173,2.0,8.0,94,0.00,,,0.19,,2013-01-29 00:42:00,
2013-01-28 19:52:00,51.0,49.0,30.13,South,169,4.0,8.0,94,0.00,,,0.19,,2013-01-29 00:52:00,
2013-01-28 20:02:00,51.0,49.0,30.14,South,172,2.0,8.0,93,0.00,,,0.19,,2013-01-29 01:02:00,
2013-01-28 20:12:00,51.0,49.0,30.14,South,172,2.0,8.0,93,0.00,,,0.19,,2013-01-29 01:12:00,
2013-01-28 20:23:00,51.0,49.0,30.13,South,172,3.0,13.0,94,0.00,,,0.18,,2013-01-29 01:23:00,
2013-01-28 20:32:00,51.0,49.0,30.13,South,173,2.0,10.0,94,0.00,,,0.18,,2013-01-29 01:32:00,
2013-01-28 20:42:00,51.0,49.0,30.13,South,173,2.0,10.0,94,0.00,,,0.18,,2013-01-29 01:42:00,
2013-01-28 20:52:00,51.0,49.0,30.13,South,177,3.0,9.0,94,0.00,,,0.18,,2013-01-29 01:52:00,
2013-01-28 21:02:00,51.0,49.0,30.13,South,177,2.0,8.0,94,0.00,,,0.18,,2013-01-29 02:02:00,
2013-01-28 21:12:00,51.0,49.0,30.13,South,177,2.0,8.0,94,0.00,,,0.18,,2013-01-29 02:12:00,
2013-01-28 21:22:00,51.0,49.0,30.13,South,177,2.0,6.0,94,0.00,,,0.15,,2013-01-29 02:22:00,
2013-01-28 21:33:00,51.0,49.0,30.13,South,179,0.0,5.0,94,0.00,,,0.15,,2013-01-29 02:33:00,
2013-01-28 21:42:00,51.0,49.0,30.13,South,179,0.0,5.0,94,0.00,,,0.15,,2013-01-29 02:42:00,
2013-01-28 21:52:00,51.0,49.0,30.12,SSE,166,4.0,7.0,94,0.00,,,0.15,,2013-01-29 02:52:00,
2013-01-28 22:03:00,52.0,50.0,30.12,South,169,2.0,6.0,94,0.00,,,0.15,,2013-01-29 03:03:00,
2013-01-28 22:12:00,52.0,50.0,30.12,South,169,2.0,6.0,94,0.00,,,0.15,,2013-01-29 03:12:00,
2013-01-28 22:22:00,52.0,50.0,30.11,South,172,1.0,9.0,94,0.00,,,0.11,,2013-01-29 03:22:00,
2013-01-28 22:32:00,52.0,50.0,30.12,South,170,3.0,7.0,94,0.00,,,0.11,,2013-01-29 03:32:00,
2013-01-28 22:42:00,52.0,50.0,30.12,South,170,3.0,7.0,94,0.00,,,0.11,,2013-01-29 03:42:00,
2013-01-28 22:52:00,52.0,50.0,30.12,South,173,2.0,6.0,94,0.00,,,0.11,,2013-01-29 03:52:00,
2013-01-28 23:02:00,52.0,50.0,30.12,South,175,2.0,6.0,94,0.00,,,0.11,,2013-01-29 04:02:00,
2013-01-28 23:12:00,52.0,50.0,30.12,South,175,2.0,6.0,94,0.00,,,0.11,,2013-01-29 04:12:00,
2013-01-28 23:22:00,52.0,50.0,30.11,South,172,3.0,8.0,94,0.00,,,0.05,,2013-01-29 04:22:00,
2013-01-28 23:32:00,52.0,50.0,30.12,South,176,2.0,7.0,94,0.00,,,0.05,,2013-01-29 04:32:00,
2013-01-28 23:42:00,52.0,50.0,30.12,South,176,2.0,7.0,94,0.00,,,0.05,,2013-01-29 04:42:00,
2013-01-28 23:52:00,52.0,50.0,30.12,South,173,2.0,6.0,94,0.00,,,0.05,,2013-01-29 04:52:00,